Location: Colonia Mina de C?rbuni
(46.1667°N, 22.7167°E)
Time: 16:50:56
(UTC+00:00)

Okean O Rocket - Pass Details

Date: 04 February 2023
Orbit: 620 x 643 km, 98.1° (Epoch: 30 March)

Event Time Altitude Azimuth Distance (km) Brightness Sun altitude
Rises 16:22:36 0° 123° (ESE) 2,917 4.6 -8.1°
Reaches altitude 10° 16:25:19 10° 105° (ESE) 2,019 3.7 -8.6°
Maximum altitude 16:28:19 18° 62° (ENE) 1,549 3.0 -9.1°
Drops below altitude 10° 16:31:21 10° 19° (NNE) 2,039 3.9 -9.6°
Sets 16:34:07 0° 1° (N) 2,957 4.9 -10.1°
